SL-16 DEB, 22601

Orbit data source: Space-Track

SL-16 DEB, 22601 is space debris in LEO originally from a launch on Fri, 26 Mar 1993 UTC launched from the Tyuratam Missile And Space Complex (TTMTR). Debris objects in space refer to the collection of defunct objects orbiting the Earth. Examples of debris include non-operational satellites, rocket bodies, and fragments generated from explosions, collisions, or faulty payload assembly.

Loading next visibility...
Identifier
22601, 1993-016K
Orbit
LEO
Country
Flag of CISCIS
Related business
Manufacturer
Unknown
Mission
Spacecraft
Bus & Motor
Unknown
Mass
Unknown
Launch date (UTC)
1993-03-26 (33 years ago)
Launch vehicle
Unknown
Launch site
Tyuratam Missile And Space Complex (TTMTR)
Object type
Payload
Rocket body
Debris
Shape & HBR
Unknown shape, 0.2 m
Radar Cross Section
Small (<0.1 m²)

Expand to show TLE details & history
Last TLE update: 13 hours ago

TLE from 13 hours ago
0 SL-16 DEB
1 22601U 93016K   25289.13791044  .00000147  00000-0  16642-3 0  9999
2 22601  71.0413 240.2098 0177893 265.8504  92.2252 13.79037213637520
Epoch: 2025-10-16T03:18Z
TLE epoch observation values (Epoch: 2025-10-16T03:18:35.462Z)
Latitude
-0°
Longitude
165.6601°
Altitude
977.059 km
Speed
7.36 km/s
True Right ascension
16h 00m 50s
True Declination
0° 00' 00"
Sunlit
Object was in daylight at epoch
Visualization orbit readout
Latitude
Unknown
Longitude
Unknown
Altitude
Unknown
Speed
Unknown
Apparent Right ascension
Unknown
Apparent Declination
Unknown
Sunlit
N/A
Visualization observer readout
Local Sidereal Time
11:26:09
Azimuth
Unknown
Elevation
Unknown
Doppler factor
Unknown
Orbital elements
Apogee altitude
1,095.893 km
Perigee altitude
834.625 km
Semi-major axis
7,343.396 km
Eccentricity
0.01779
Inclination
71.0413°
RAAN
240.2098°
Arg. of periapsis
265.8504°
True anomaly
94.25998°
Mean anomaly
92.2252°
Eccentric anomaly
93.24282°
Mean motion
3.44904 °/min
Orbital period
104.38 mins
BSTAR
0.00016642
Loading maneuver chart data...
Computing Atmospheric mass density...
Loading historical data...
Loading historical data...
Loading historical data...
Loading historical data...
Loading historical data...
Loading historical data...
Loading historical data...

Documentation

Showing up to 5 results
|